Time,TemperatureF,DewpointF,PressureIn,WindDirection,WindDirectionDegrees,WindSpeedMPH,WindSpeedGustMPH,Humidity,HourlyPrecipIn,Conditions,Clouds,dailyrainin,SolarRadiationWatts/m^2,SoftwareType,DateUTC
2013-01-20 00:04:00,37.9,35.5,30.23,NNW,336,0.0,1.0,91,0.00,,,0.00,0.0,WUHU216DAVISVP2,2013-01-20 08:04:00,
2013-01-20 00:09:00,37.8,35.4,30.23,NNW,336,0.0,1.0,91,0.00,,,0.00,0.0,WUHU216DAVISVP2,2013-01-20 08:09:00,
2013-01-20 00:14:00,37.8,35.4,30.23,NNW,336,0.0,1.0,91,0.00,,,0.00,0.0,WUHU216DAVISVP2,2013-01-20 08:14:00,
2013-01-20 00:19:00,37.8,35.4,30.23,NNW,336,0.0,1.0,91,0.00,,,0.00,0.0,WUHU216DAVISVP2,2013-01-20 08:19:00,
2013-01-20 00:24:00,38.3,36.1,30.23,NNW,336,0.0,0.0,92,0.00,,,0.00,0.0,WUHU216DAVISVP2,2013-01-20 08:24:00,
2013-01-20 00:29:00,38.6,36.4,30.23,NNW,336,0.0,0.0,92,0.00,,,0.00,0.0,WUHU216DAVISVP2,2013-01-20 08:29:00,
2013-01-20 00:34:00,38.6,36.2,30.23,NNW,336,0.0,0.0,91,0.00,,,0.00,0.0,WUHU216DAVISVP2,2013-01-20 08:34:00,
2013-01-20 00:39:00,38.6,35.9,30.23,NNW,336,0.0,0.0,90,0.00,,,0.00,0.0,WUHU216DAVISVP2,2013-01-20 08:39:00,
2013-01-20 00:44:00,38.9,36.5,30.23,NNW,336,0.0,0.0,91,0.00,,,0.00,0.0,WUHU216DAVISVP2,2013-01-20 08:44:00,
2013-01-20 00:49:00,39.0,36.3,30.23,NNW,336,0.0,0.0,90,0.00,,,0.00,0.0,WUHU216DAVISVP2,2013-01-20 08:49:00,
2013-01-20 00:54:00,39.0,35.7,30.23,NNW,336,0.0,0.0,88,0.00,,,0.00,0.0,WUHU216DAVISVP2,2013-01-20 08:54:00,
2013-01-20 00:58:00,38.9,35.9,30.22,NNW,336,0.0,0.0,89,0.00,,,0.00,0.0,WUHU216DAVISVP2,2013-01-20 08:58:00,
2013-01-20 01:03:00,38.8,35.5,30.22,NNW,336,0.0,0.0,88,0.00,,,0.00,0.0,WUHU216DAVISVP2,2013-01-20 09:03:00,
2013-01-20 01:08:00,38.7,35.7,30.22,NNW,336,0.0,0.0,89,0.00,,,0.00,0.0,WUHU216DAVISVP2,2013-01-20 09:08:00,
2013-01-20 01:13:00,38.7,36.0,30.22,NNW,336,0.0,0.0,90,0.00,,,0.00,0.0,WUHU216DAVISVP2,2013-01-20 09:13:00,
2013-01-20 01:19:00,38.9,36.2,30.22,NNW,336,0.0,0.0,90,0.00,,,0.00,0.0,WUHU216DAVISVP2,2013-01-20 09:19:00,
2013-01-20 01:24:00,39.2,36.5,30.22,NNW,336,0.0,0.0,90,0.00,,,0.00,0.0,WUHU216DAVISVP2,2013-01-20 09:24:00,
2013-01-20 01:29:00,39.0,35.4,30.22,NNW,336,0.0,0.0,87,0.00,,,0.00,0.0,WUHU216DAVISVP2,2013-01-20 09:29:00,
2013-01-20 01:34:00,38.6,35.0,30.22,NNW,336,2.0,2.0,87,0.00,,,0.00,0.0,WUHU216DAVISVP2,2013-01-20 09:34:00,
2013-01-20 01:39:00,38.6,35.6,30.22,NNW,336,1.0,3.0,89,0.00,,,0.00,0.0,WUHU216DAVISVP2,2013-01-20 09:39:00,
2013-01-20 01:44:00,38.7,35.7,30.22,NNW,336,0.0,3.0,89,0.00,,,0.00,0.0,WUHU216DAVISVP2,2013-01-20 09:44:00,
2013-01-20 01:49:00,38.4,35.4,30.22,NNW,336,0.0,3.0,89,0.00,,,0.00,0.0,WUHU216DAVISVP2,2013-01-20 09:49:00,
2013-01-20 01:54:00,38.3,35.3,30.22,NNW,336,0.0,3.0,89,0.00,,,0.00,0.0,WUHU216DAVISVP2,2013-01-20 09:54:00,
2013-01-20 01:59:00,38.2,35.2,30.22,NNW,336,0.0,1.0,89,0.00,,,0.00,0.0,WUHU216DAVISVP2,2013-01-20 09:59:00,
2013-01-20 02:04:00,38.0,35.0,30.22,NNW,336,0.0,1.0,89,0.00,,,0.00,0.0,WUHU216DAVISVP2,2013-01-20 10:04:00,
2013-01-20 02:09:00,37.9,34.9,30.22,NNW,336,0.0,0.0,89,0.00,,,0.00,0.0,WUHU216DAVISVP2,2013-01-20 10:09:00,
2013-01-20 02:14:00,37.8,34.8,30.22,NNW,336,0.0,1.0,89,0.00,,,0.00,0.0,WUHU216DAVISVP2,2013-01-20 10:14:00,
2013-01-20 02:19:00,37.7,34.7,30.22,NNW,336,1.0,2.0,89,0.00,,,0.00,0.0,WUHU216DAVISVP2,2013-01-20 10:19:00,
2013-01-20 02:24:00,37.7,35.0,30.22,NNW,336,1.0,3.0,90,0.00,,,0.00,0.0,WUHU216DAVISVP2,2013-01-20 10:24:00,
2013-01-20 02:29:00,37.6,34.9,30.23,NNW,336,0.0,3.0,90,0.00,,,0.00,0.0,WUHU216DAVISVP2,2013-01-20 10:29:00,
2013-01-20 02:34:00,37.5,34.5,30.23,NNW,336,0.0,3.0,89,0.00,,,0.00,0.0,WUHU216DAVISVP2,2013-01-20 10:34:00,
2013-01-20 02:39:00,37.3,34.6,30.22,NNW,336,1.0,3.0,90,0.00,,,0.00,0.0,WUHU216DAVISVP2,2013-01-20 10:39:00,
2013-01-20 02:44:00,37.3,34.6,30.23,NNW,336,0.0,2.0,90,0.00,,,0.00,0.0,WUHU216DAVISVP2,2013-01-20 10:44:00,
2013-01-20 02:49:00,36.9,33.9,30.22,NNW,336,1.0,2.0,89,0.00,,,0.00,0.0,WUHU216DAVISVP2,2013-01-20 10:49:00,
2013-01-20 02:54:00,36.9,34.5,30.22,NNW,336,0.0,2.0,91,0.00,,,0.00,0.0,WUHU216DAVISVP2,2013-01-20 10:54:00,
2013-01-20 02:59:00,36.8,34.1,30.22,NNW,336,0.0,2.0,90,0.00,,,0.00,0.0,WUHU216DAVISVP2,2013-01-20 10:59:00,
2013-01-20 03:04:00,36.3,33.3,30.22,NNW,336,0.0,2.0,89,0.00,,,0.00,0.0,WUHU216DAVISVP2,2013-01-20 11:04:00,
2013-01-20 03:09:00,36.0,33.3,30.23,NNW,336,0.0,1.0,90,0.00,,,0.00,0.0,WUHU216DAVISVP2,2013-01-20 11:09:00,
2013-01-20 03:14:00,36.0,33.9,30.22,NNW,336,0.0,1.0,92,0.00,,,0.00,0.0,WUHU216DAVISVP2,2013-01-20 11:14:00,
2013-01-20 03:19:00,36.1,34.0,30.22,NNW,336,0.0,1.0,92,0.00,,,0.00,0.0,WUHU216DAVISVP2,2013-01-20 11:19:00,
2013-01-20 03:24:00,36.0,33.6,30.22,NNW,336,0.0,1.0,91,0.00,,,0.00,0.0,WUHU216DAVISVP2,2013-01-20 11:24:00,
2013-01-20 03:29:00,35.7,33.3,30.23,NNW,336,0.0,0.0,91,0.00,,,0.00,0.0,WUHU216DAVISVP2,2013-01-20 11:29:00,
2013-01-20 03:34:00,35.3,32.9,30.23,NNW,336,0.0,0.0,91,0.00,,,0.00,0.0,WUHU216DAVISVP2,2013-01-20 11:34:00,
2013-01-20 03:39:00,35.3,32.9,30.23,NNW,336,0.0,0.0,91,0.00,,,0.00,0.0,WUHU216DAVISVP2,2013-01-20 11:39:00,
2013-01-20 03:44:00,35.1,32.7,30.23,NNW,336,0.0,0.0,91,0.00,,,0.00,0.0,WUHU216DAVISVP2,2013-01-20 11:44:00,
2013-01-20 03:49:00,34.6,32.2,30.23,NNW,336,0.0,0.0,91,0.00,,,0.00,0.0,WUHU216DAVISVP2,2013-01-20 11:49:00,
2013-01-20 03:54:00,34.3,31.9,30.22,NNW,336,0.0,0.0,91,0.00,,,0.00,0.0,WUHU216DAVISVP2,2013-01-20 11:54:00,
2013-01-20 03:59:00,34.1,32.0,30.22,NNW,336,0.0,0.0,92,0.00,,,0.00,0.0,WUHU216DAVISVP2,2013-01-20 11:59:00,
2013-01-20 04:04:00,33.7,31.6,30.23,NNW,336,0.0,0.0,92,0.00,,,0.00,0.0,WUHU216DAVISVP2,2013-01-20 12:04:00,
2013-01-20 04:09:00,33.5,31.4,30.23,NNW,336,0.0,0.0,92,0.00,,,0.00,0.0,WUHU216DAVISVP2,2013-01-20 12:09:00,
2013-01-20 04:14:00,33.2,31.1,30.23,NNW,336,0.0,0.0,92,0.00,,,0.00,0.0,WUHU216DAVISVP2,2013-01-20 12:14:00,
2013-01-20 04:19:00,33.0,30.9,30.23,NNW,336,0.0,0.0,92,0.00,,,0.00,0.0,WUHU216DAVISVP2,2013-01-20 12:19:00,
2013-01-20 04:24:00,32.9,30.8,30.23,NNW,336,0.0,0.0,92,0.00,,,0.00,0.0,WUHU216DAVISVP2,2013-01-20 12:24:00,
2013-01-20 04:29:00,32.7,30.6,30.22,NNW,336,0.0,0.0,92,0.00,,,0.00,0.0,WUHU216DAVISVP2,2013-01-20 12:29:00,
2013-01-20 04:34:00,32.5,30.4,30.23,NNW,336,0.0,0.0,92,0.00,,,0.00,0.0,WUHU216DAVISVP2,2013-01-20 12:34:00,
2013-01-20 04:39:00,32.3,30.5,30.22,NNW,336,0.0,2.0,93,0.00,,,0.00,0.0,WUHU216DAVISVP2,2013-01-20 12:39:00,
2013-01-20 04:44:00,32.2,30.4,30.22,NNW,336,0.0,2.0,93,0.00,,,0.00,0.0,WUHU216DAVISVP2,2013-01-20 12:44:00,
2013-01-20 04:49:00,32.3,30.5,30.22,NNW,336,0.0,2.0,93,0.00,,,0.00,0.0,WUHU216DAVISVP2,2013-01-20 12:49:00,
2013-01-20 04:54:00,32.3,30.5,30.22,NNW,336,0.0,2.0,93,0.00,,,0.00,0.0,WUHU216DAVISVP2,2013-01-20 12:54:00,
2013-01-20 04:59:00,32.1,30.3,30.23,NNW,336,0.0,0.0,93,0.00,,,0.00,0.0,WUHU216DAVISVP2,2013-01-20 12:59:00,
2013-01-20 05:04:00,32.0,30.2,30.22,NNW,336,0.0,0.0,93,0.00,,,0.00,0.0,WUHU216DAVISVP2,2013-01-20 13:04:00,
2013-01-20 05:09:00,32.0,30.2,30.22,NNW,336,0.0,0.0,93,0.00,,,0.00,0.0,WUHU216DAVISVP2,2013-01-20 13:09:00,
2013-01-20 05:14:00,31.9,30.1,30.22,NNW,336,0.0,0.0,93,0.00,,,0.00,0.0,WUHU216DAVISVP2,2013-01-20 13:14:00,
2013-01-20 05:19:00,31.8,30.0,30.22,NNW,336,0.0,0.0,93,0.00,,,0.00,0.0,WUHU216DAVISVP2,2013-01-20 13:19:00,
2013-01-20 05:24:00,32.1,30.6,30.22,NNW,336,1.0,2.0,94,0.00,,,0.00,0.0,WUHU216DAVISVP2,2013-01-20 13:24:00,
2013-01-20 05:29:00,32.7,31.2,30.22,NNW,336,1.0,3.0,94,0.00,,,0.00,0.0,WUHU216DAVISVP2,2013-01-20 13:29:00,
2013-01-20 05:34:00,32.8,31.3,30.22,NNW,336,2.0,3.0,94,0.00,,,0.00,0.0,WUHU216DAVISVP2,2013-01-20 13:34:00,
2013-01-20 05:39:00,33.0,31.5,30.22,NNW,336,0.0,3.0,94,0.00,,,0.00,0.0,WUHU216DAVISVP2,2013-01-20 13:39:00,
2013-01-20 05:44:00,33.1,31.5,30.22,NNW,336,2.0,3.0,94,0.00,,,0.00,0.0,WUHU216DAVISVP2,2013-01-20 13:44:00,
2013-01-20 05:49:00,33.0,31.4,30.22,NNW,336,0.0,3.0,94,0.00,,,0.00,0.0,WUHU216DAVISVP2,2013-01-20 13:49:00,
2013-01-20 05:54:00,33.2,31.6,30.22,NNW,336,1.0,3.0,94,0.00,,,0.00,0.0,WUHU216DAVISVP2,2013-01-20 13:54:00,
2013-01-20 05:59:00,33.5,31.9,30.22,NNW,336,0.0,2.0,94,0.00,,,0.00,0.0,WUHU216DAVISVP2,2013-01-20 13:59:00,
2013-01-20 06:04:00,33.7,32.1,30.23,NNW,336,0.0,2.0,94,0.00,,,0.00,0.0,WUHU216DAVISVP2,2013-01-20 14:04:00,
2013-01-20 06:09:00,33.8,32.2,30.23,NNW,336,0.0,2.0,94,0.00,,,0.00,0.0,WUHU216DAVISVP2,2013-01-20 14:09:00,
2013-01-20 06:14:00,33.8,32.2,30.23,NNW,336,0.0,1.0,94,0.00,,,0.00,0.0,WUHU216DAVISVP2,2013-01-20 14:14:00,
2013-01-20 06:19:00,34.0,32.4,30.23,NNW,336,0.0,0.0,94,0.00,,,0.00,0.0,WUHU216DAVISVP2,2013-01-20 14:19:00,
2013-01-20 06:24:00,34.0,32.4,30.22,NNW,336,0.0,2.0,94,0.00,,,0.00,0.0,WUHU216DAVISVP2,2013-01-20 14:24:00,
2013-01-20 06:29:00,33.5,31.6,30.22,NNW,336,0.0,2.0,93,0.00,,,0.00,0.0,WUHU216DAVISVP2,2013-01-20 14:29:00,
2013-01-20 06:34:00,33.8,32.2,30.22,NNW,336,1.0,2.0,94,0.00,,,0.00,0.0,WUHU216DAVISVP2,2013-01-20 14:34:00,
2013-01-20 06:39:00,34.1,32.6,30.22,NNW,336,2.0,2.0,94,0.00,,,0.00,0.0,WUHU216DAVISVP2,2013-01-20 14:39:00,
2013-01-20 06:44:00,34.4,32.9,30.22,NNW,336,2.0,3.0,94,0.00,,,0.00,0.0,WUHU216DAVISVP2,2013-01-20 14:44:00,
2013-01-20 06:49:00,34.4,32.9,30.22,NNW,336,1.0,3.0,94,0.00,,,0.00,0.0,WUHU216DAVISVP2,2013-01-20 14:49:00,
2013-01-20 06:54:00,34.8,33.2,30.22,NNW,336,2.0,4.0,94,0.00,,,0.00,0.0,WUHU216DAVISVP2,2013-01-20 14:54:00,
2013-01-20 06:59:00,35.0,33.4,30.22,NNW,336,2.0,4.0,94,0.00,,,0.00,0.0,WUHU216DAVISVP2,2013-01-20 14:59:00,
2013-01-20 07:04:00,35.2,33.6,30.22,NNW,336,1.0,4.0,94,0.00,,,0.00,0.0,WUHU216DAVISVP2,2013-01-20 15:04:00,
2013-01-20 07:09:00,35.1,33.2,30.22,NNW,336,0.0,4.0,93,0.00,,,0.00,5.0,WUHU216DAVISVP2,2013-01-20 15:09:00,
2013-01-20 07:14:00,35.1,33.2,30.22,NNW,336,0.0,4.0,93,0.00,,,0.00,7.0,WUHU216DAVISVP2,2013-01-20 15:14:00,
2013-01-20 07:19:00,35.0,33.1,30.22,NNW,336,1.0,3.0,93,0.00,,,0.00,12.0,WUHU216DAVISVP2,2013-01-20 15:19:00,
2013-01-20 07:24:00,34.9,33.0,30.22,NNW,336,0.0,2.0,93,0.00,,,0.00,18.0,WUHU216DAVISVP2,2013-01-20 15:24:00,
2013-01-20 07:29:00,34.9,33.0,30.22,NNW,336,2.0,2.0,93,0.00,,,0.00,25.0,WUHU216DAVISVP2,2013-01-20 15:29:00,
2013-01-20 07:34:00,35.1,33.2,30.22,NNW,336,2.0,3.0,93,0.00,,,0.00,32.0,WUHU216DAVISVP2,2013-01-20 15:34:00,
2013-01-20 07:39:00,35.5,33.9,30.22,NNW,336,1.0,4.0,94,0.00,,,0.00,39.0,WUHU216DAVISVP2,2013-01-20 15:39:00,
2013-01-20 07:44:00,35.9,34.0,30.22,NNW,336,0.0,4.0,93,0.00,,,0.00,47.0,WUHU216DAVISVP2,2013-01-20 15:44:00,
2013-01-20 07:49:00,36.4,34.5,30.23,NNW,336,1.0,4.0,93,0.00,,,0.00,58.0,WUHU216DAVISVP2,2013-01-20 15:49:00,
2013-01-20 07:54:00,36.9,35.0,30.23,NNW,336,0.0,4.0,93,0.00,,,0.00,69.0,WUHU216DAVISVP2,2013-01-20 15:54:00,
2013-01-20 07:59:00,37.3,35.2,30.23,NNW,336,0.0,3.0,92,0.00,,,0.00,81.0,WUHU216DAVISVP2,2013-01-20 15:59:00,
2013-01-20 08:04:00,37.7,35.6,30.23,NNW,336,2.0,4.0,92,0.00,,,0.00,93.0,WUHU216DAVISVP2,2013-01-20 16:04:00,
2013-01-20 08:09:00,38.1,35.7,30.24,NNW,336,2.0,4.0,91,0.00,,,0.00,107.0,WUHU216DAVISVP2,2013-01-20 16:09:00,
2013-01-20 08:14:00,38.4,36.0,30.24,NNW,336,0.0,4.0,91,0.00,,,0.00,116.0,WUHU216DAVISVP2,2013-01-20 16:14:00,
2013-01-20 08:19:00,38.9,36.2,30.24,NNW,336,2.0,4.0,90,0.00,,,0.00,130.0,WUHU216DAVISVP2,2013-01-20 16:19:00,
2013-01-20 08:24:00,39.4,36.7,30.24,NNW,336,2.0,4.0,90,0.00,,,0.00,146.0,WUHU216DAVISVP2,2013-01-20 16:24:00,
2013-01-20 08:29:00,39.8,36.8,30.24,NNW,336,2.0,4.0,89,0.00,,,0.00,160.0,WUHU216DAVISVP2,2013-01-20 16:29:00,
2013-01-20 08:34:00,40.2,37.2,30.24,NNW,336,2.0,4.0,89,0.00,,,0.00,174.0,WUHU216DAVISVP2,2013-01-20 16:34:00,
2013-01-20 08:39:00,40.8,37.8,30.25,NNW,336,0.0,4.0,89,0.00,,,0.00,186.0,WUHU216DAVISVP2,2013-01-20 16:39:00,
2013-01-20 08:44:00,41.2,37.9,30.25,NNW,336,1.0,4.0,88,0.00,,,0.00,197.0,WUHU216DAVISVP2,2013-01-20 16:44:00,
2013-01-20 08:49:00,41.5,38.2,30.25,NNW,336,1.0,4.0,88,0.00,,,0.00,214.0,WUHU216DAVISVP2,2013-01-20 16:49:00,
2013-01-20 08:54:00,41.8,38.5,30.25,NNW,336,0.0,4.0,88,0.00,,,0.00,229.0,WUHU216DAVISVP2,2013-01-20 16:54:00,
2013-01-20 08:59:00,42.4,39.1,30.25,NNW,336,0.0,4.0,88,0.00,,,0.00,241.0,WUHU216DAVISVP2,2013-01-20 16:59:00,
2013-01-20 09:04:00,42.5,38.9,30.25,NNW,336,0.0,3.0,87,0.00,,,0.00,255.0,WUHU216DAVISVP2,2013-01-20 17:04:00,
2013-01-20 09:09:00,43.5,39.9,30.25,NNW,336,0.0,2.0,87,0.00,,,0.00,269.0,WUHU216DAVISVP2,2013-01-20 17:09:00,
2013-01-20 09:14:00,44.1,39.9,30.25,NNW,336,0.0,1.0,85,0.00,,,0.00,279.0,WUHU216DAVISVP2,2013-01-20 17:14:00,
2013-01-20 09:19:00,44.7,40.5,30.26,NNW,336,0.0,0.0,85,0.00,,,0.00,292.0,WUHU216DAVISVP2,2013-01-20 17:19:00,
2013-01-20 09:24:00,45.4,40.8,30.26,NNW,336,0.0,0.0,84,0.00,,,0.00,304.0,WUHU216DAVISVP2,2013-01-20 17:24:00,
2013-01-20 09:29:00,45.6,40.7,30.26,NNW,336,0.0,0.0,83,0.00,,,0.00,323.0,WUHU216DAVISVP2,2013-01-20 17:29:00,
2013-01-20 09:34:00,45.9,41.0,30.26,NNW,336,0.0,3.0,83,0.00,,,0.00,341.0,WUHU216DAVISVP2,2013-01-20 17:34:00,
2013-01-20 09:39:00,46.6,41.7,30.26,NNW,336,2.0,3.0,83,0.00,,,0.00,353.0,WUHU216DAVISVP2,2013-01-20 17:39:00,
2013-01-20 09:44:00,47.0,41.5,30.26,NNW,336,3.0,3.0,81,0.00,,,0.00,362.0,WUHU216DAVISVP2,2013-01-20 17:44:00,
2013-01-20 09:49:00,47.1,41.3,30.26,NNW,336,2.0,4.0,80,0.00,,,0.00,373.0,WUHU216DAVISVP2,2013-01-20 17:49:00,
2013-01-20 09:54:00,47.6,41.8,30.26,SE,126,4.0,5.0,80,0.00,,,0.00,385.0,WUHU216DAVISVP2,2013-01-20 17:54:00,
2013-01-20 09:59:00,47.7,41.5,30.26,SE,131,2.0,5.0,79,0.00,,,0.00,397.0,WUHU216DAVISVP2,2013-01-20 17:59:00,
2013-01-20 10:03:00,48.1,41.9,30.26,SE,132,2.0,5.0,79,0.00,,,0.00,406.0,WUHU216DAVISVP2,2013-01-20 18:03:00,
2013-01-20 10:09:00,48.6,42.1,30.26,SE,134,0.0,5.0,78,0.00,,,0.00,418.0,WUHU216DAVISVP2,2013-01-20 18:09:00,
2013-01-20 10:14:00,48.9,42.7,30.26,SE,134,1.0,4.0,79,0.00,,,0.00,427.0,WUHU216DAVISVP2,2013-01-20 18:14:00,
2013-01-20 10:19:00,49.4,42.9,30.26,SE,135,1.0,4.0,78,0.00,,,0.00,434.0,WUHU216DAVISVP2,2013-01-20 18:19:00,
2013-01-20 10:24:00,49.5,42.6,30.26,SSE,167,2.0,6.0,77,0.00,,,0.00,445.0,WUHU216DAVISVP2,2013-01-20 18:24:00,
2013-01-20 10:29:00,49.5,42.6,30.25,South,169,2.0,6.0,77,0.00,,,0.00,450.0,WUHU216DAVISVP2,2013-01-20 18:29:00,
2013-01-20 10:34:00,49.9,43.0,30.25,South,169,1.0,6.0,77,0.00,,,0.00,462.0,WUHU216DAVISVP2,2013-01-20 18:34:00,
2013-01-20 10:39:00,50.8,43.2,30.25,South,169,0.0,5.0,75,0.00,,,0.00,469.0,WUHU216DAVISVP2,2013-01-20 18:39:00,
2013-01-20 10:44:00,51.4,43.1,30.25,South,177,3.0,5.0,73,0.00,,,0.00,480.0,WUHU216DAVISVP2,2013-01-20 18:44:00,
2013-01-20 10:49:00,51.5,43.2,30.25,South,180,2.0,5.0,73,0.00,,,0.00,487.0,WUHU216DAVISVP2,2013-01-20 18:49:00,
2013-01-20 10:54:00,51.7,43.1,30.24,South,180,2.0,5.0,72,0.00,,,0.00,492.0,WUHU216DAVISVP2,2013-01-20 18:54:00,
2013-01-20 10:59:00,52.3,43.6,30.24,South,180,3.0,5.0,72,0.00,,,0.00,496.0,WUHU216DAVISVP2,2013-01-20 18:59:00,
2013-01-20 11:04:00,52.6,43.6,30.24,SW,231,1.0,5.0,71,0.00,,,0.00,499.0,WUHU216DAVISVP2,2013-01-20 19:04:00,
2013-01-20 11:09:00,52.9,43.9,30.23,SW,229,3.0,5.0,71,0.00,,,0.00,510.0,WUHU216DAVISVP2,2013-01-20 19:09:00,
2013-01-20 11:14:00,53.3,43.5,30.23,SW,227,0.0,5.0,69,0.00,,,0.00,513.0,WUHU216DAVISVP2,2013-01-20 19:14:00,
2013-01-20 11:19:00,53.7,43.9,30.23,SW,227,0.0,5.0,69,0.00,,,0.00,520.0,WUHU216DAVISVP2,2013-01-20 19:19:00,
2013-01-20 11:24:00,54.3,44.1,30.23,SW,227,0.0,5.0,68,0.00,,,0.00,522.0,WUHU216DAVISVP2,2013-01-20 19:24:00,
2013-01-20 11:29:00,54.5,43.9,30.22,West,275,1.0,4.0,67,0.00,,,0.00,533.0,WUHU216DAVISVP2,2013-01-20 19:29:00,
2013-01-20 11:34:00,54.3,43.7,30.22,West,275,2.0,4.0,67,0.00,,,0.00,536.0,WUHU216DAVISVP2,2013-01-20 19:34:00,
2013-01-20 11:39:00,54.2,43.1,30.22,West,275,0.0,4.0,66,0.00,,,0.00,540.0,WUHU216DAVISVP2,2013-01-20 19:39:00,
2013-01-20 11:44:00,54.8,44.0,30.21,West,275,0.0,4.0,67,0.00,,,0.00,541.0,WUHU216DAVISVP2,2013-01-20 19:44:00,
2013-01-20 11:49:00,55.5,43.9,30.21,West,275,1.0,4.0,65,0.00,,,0.00,545.0,WUHU216DAVISVP2,2013-01-20 19:49:00,
2013-01-20 11:54:00,55.8,44.2,30.21,West,275,2.0,4.0,65,0.00,,,0.00,545.0,WUHU216DAVISVP2,2013-01-20 19:54:00,
2013-01-20 11:59:00,56.0,44.4,30.20,West,275,1.0,4.0,65,0.00,,,0.00,541.0,WUHU216DAVISVP2,2013-01-20 19:59:00,
2013-01-20 12:04:00,56.5,44.5,30.20,West,275,3.0,4.0,64,0.00,,,0.00,543.0,WUHU216DAVISVP2,2013-01-20 20:04:00,
2013-01-20 12:09:00,56.7,44.7,30.20,NNW,330,2.0,4.0,64,0.00,,,0.00,536.0,WUHU216DAVISVP2,2013-01-20 20:09:00,
2013-01-20 12:14:00,57.4,44.9,30.19,NNW,330,1.0,4.0,63,0.00,,,0.00,540.0,WUHU216DAVISVP2,2013-01-20 20:14:00,
2013-01-20 12:19:00,57.7,44.8,30.19,NNW,330,0.0,4.0,62,0.00,,,0.00,534.0,WUHU216DAVISVP2,2013-01-20 20:19:00,
2013-01-20 12:24:00,57.5,44.7,30.19,NW,310,2.0,5.0,62,0.00,,,0.00,538.0,WUHU216DAVISVP2,2013-01-20 20:24:00,
2013-01-20 12:29:00,57.8,45.0,30.18,NW,315,2.0,5.0,62,0.00,,,0.00,547.0,WUHU216DAVISVP2,2013-01-20 20:29:00,
2013-01-20 12:34:00,57.7,44.9,30.18,WSW,251,4.0,5.0,62,0.00,,,0.00,545.0,WUHU216DAVISVP2,2013-01-20 20:34:00,
2013-01-20 12:39:00,57.6,44.8,30.18,NW,306,4.0,5.0,62,0.00,,,0.00,540.0,WUHU216DAVISVP2,2013-01-20 20:39:00,
2013-01-20 12:44:00,57.4,44.6,30.17,WNW,300,2.0,6.0,62,0.00,,,0.00,540.0,WUHU216DAVISVP2,2013-01-20 20:44:00,
2013-01-20 12:49:00,57.6,44.8,30.17,West,277,2.0,7.0,62,0.00,,,0.00,540.0,WUHU216DAVISVP2,2013-01-20 20:49:00,
2013-01-20 12:54:00,58.1,44.8,30.17,West,261,5.0,7.0,61,0.00,,,0.00,531.0,WUHU216DAVISVP2,2013-01-20 20:54:00,
2013-01-20 12:59:00,58.1,44.4,30.17,WNW,290,3.0,7.0,60,0.00,,,0.00,527.0,WUHU216DAVISVP2,2013-01-20 20:59:00,
2013-01-20 13:04:00,58.7,45.0,30.16,NW,315,3.0,7.0,60,0.00,,,0.00,526.0,WUHU216DAVISVP2,2013-01-20 21:04:00,
2013-01-20 13:09:00,59.2,44.5,30.16,NNW,330,3.0,6.0,58,0.00,,,0.00,526.0,WUHU216DAVISVP2,2013-01-20 21:09:00,
2013-01-20 13:14:00,59.3,44.6,30.16,NNW,342,3.0,6.0,58,0.00,,,0.00,515.0,WUHU216DAVISVP2,2013-01-20 21:14:00,
2013-01-20 13:19:00,59.6,44.9,30.15,NW,317,3.0,6.0,58,0.00,,,0.00,515.0,WUHU216DAVISVP2,2013-01-20 21:19:00,
2013-01-20 13:24:00,59.7,45.3,30.15,WNW,302,3.0,6.0,59,0.00,,,0.00,513.0,WUHU216DAVISVP2,2013-01-20 21:24:00,
2013-01-20 13:29:00,59.7,45.8,30.15,NNE,13,2.0,7.0,60,0.00,,,0.00,501.0,WUHU216DAVISVP2,2013-01-20 21:29:00,
2013-01-20 13:34:00,60.0,46.1,30.15,NW,310,3.0,7.0,60,0.00,,,0.00,489.0,WUHU216DAVISVP2,2013-01-20 21:34:00,
2013-01-20 13:39:00,60.5,46.1,30.15,NW,321,2.0,7.0,59,0.00,,,0.00,483.0,WUHU216DAVISVP2,2013-01-20 21:39:00,
2013-01-20 13:44:00,60.9,45.6,30.14,NNE,16,4.0,6.0,57,0.00,,,0.00,476.0,WUHU216DAVISVP2,2013-01-20 21:44:00,
2013-01-20 13:49:00,60.9,45.1,30.14,NW,306,5.0,6.0,56,0.00,,,0.00,471.0,WUHU216DAVISVP2,2013-01-20 21:49:00,
2013-01-20 13:54:00,60.7,44.0,30.14,NNE,26,4.0,6.0,54,0.00,,,0.00,462.0,WUHU216DAVISVP2,2013-01-20 21:54:00,
2013-01-20 13:59:00,60.2,42.5,30.14,North,360,4.0,6.0,52,0.00,,,0.00,462.0,WUHU216DAVISVP2,2013-01-20 21:59:00,
2013-01-20 14:04:00,60.5,42.3,30.14,North,350,1.0,6.0,51,0.00,,,0.00,445.0,WUHU216DAVISVP2,2013-01-20 22:04:00,
2013-01-20 14:09:00,60.7,42.5,30.14,WNW,293,4.0,6.0,51,0.00,,,0.00,446.0,WUHU216DAVISVP2,2013-01-20 22:09:00,
2013-01-20 14:14:00,61.3,44.1,30.14,NNW,335,3.0,6.0,53,0.00,,,0.00,432.0,WUHU216DAVISVP2,2013-01-20 22:14:00,
2013-01-20 14:19:00,61.6,43.8,30.13,NNW,335,2.0,6.0,52,0.00,,,0.00,424.0,WUHU216DAVISVP2,2013-01-20 22:19:00,
2013-01-20 14:24:00,61.9,43.1,30.13,NNW,341,1.0,6.0,50,0.00,,,0.00,417.0,WUHU216DAVISVP2,2013-01-20 22:24:00,
2013-01-20 14:29:00,61.9,44.1,30.13,WNW,284,3.0,6.0,52,0.00,,,0.00,406.0,WUHU216DAVISVP2,2013-01-20 22:29:00,
2013-01-20 14:34:00,62.1,43.3,30.13,NNW,328,4.0,5.0,50,0.00,,,0.00,390.0,WUHU216DAVISVP2,2013-01-20 22:34:00,
2013-01-20 14:39:00,62.4,43.0,30.13,NNW,338,2.0,5.0,49,0.00,,,0.00,378.0,WUHU216DAVISVP2,2013-01-20 22:39:00,
2013-01-20 14:44:00,62.4,42.4,30.13,NNW,342,3.0,5.0,48,0.00,,,0.00,364.0,WUHU216DAVISVP2,2013-01-20 22:44:00,
2013-01-20 14:49:00,62.4,44.1,30.13,NW,311,2.0,6.0,51,0.00,,,0.00,352.0,WUHU216DAVISVP2,2013-01-20 22:49:00,
2013-01-20 14:54:00,62.5,44.1,30.13,NNW,342,2.0,6.0,51,0.00,,,0.00,343.0,WUHU216DAVISVP2,2013-01-20 22:54:00,
2013-01-20 14:59:00,62.6,43.7,30.13,NNW,346,3.0,6.0,50,0.00,,,0.00,329.0,WUHU216DAVISVP2,2013-01-20 22:59:00,
2013-01-20 15:04:00,62.5,43.6,30.13,NW,323,2.0,6.0,50,0.00,,,0.00,311.0,WUHU216DAVISVP2,2013-01-20 23:04:00,
2013-01-20 15:09:00,62.4,44.5,30.12,NW,309,3.0,6.0,52,0.00,,,0.00,301.0,WUHU216DAVISVP2,2013-01-20 23:09:00,
2013-01-20 15:14:00,62.6,44.2,30.12,NW,315,3.0,6.0,51,0.00,,,0.00,279.0,WUHU216DAVISVP2,2013-01-20 23:14:00,
2013-01-20 15:19:00,62.9,44.0,30.12,WNW,296,2.0,6.0,50,0.00,,,0.00,265.0,WUHU216DAVISVP2,2013-01-20 23:19:00,
2013-01-20 15:24:00,63.1,44.2,30.12,NNW,330,5.0,6.0,50,0.00,,,0.00,253.0,WUHU216DAVISVP2,2013-01-20 23:24:00,
2013-01-20 15:29:00,63.2,43.7,30.12,NW,322,5.0,7.0,49,0.00,,,0.00,230.0,WUHU216DAVISVP2,2013-01-20 23:29:00,
2013-01-20 15:34:00,63.1,43.6,30.12,NW,307,4.0,7.0,49,0.00,,,0.00,211.0,WUHU216DAVISVP2,2013-01-20 23:34:00,
2013-01-20 15:39:00,63.0,44.1,30.12,NNW,344,2.0,7.0,50,0.00,,,0.00,193.0,WUHU216DAVISVP2,2013-01-20 23:39:00,
2013-01-20 15:44:00,63.1,44.2,30.12,NNW,333,1.0,7.0,50,0.00,,,0.00,179.0,WUHU216DAVISVP2,2013-01-20 23:44:00,
2013-01-20 15:49:00,63.1,44.7,30.12,NW,306,4.0,5.0,51,0.00,,,0.00,162.0,WUHU216DAVISVP2,2013-01-20 23:49:00,
2013-01-20 15:54:00,62.9,44.0,30.12,NW,315,2.0,6.0,50,0.00,,,0.00,146.0,WUHU216DAVISVP2,2013-01-20 23:54:00,
2013-01-20 15:59:00,62.6,43.7,30.12,NW,304,3.0,6.0,50,0.00,,,0.00,130.0,WUHU216DAVISVP2,2013-01-20 23:59:00,
2013-01-20 16:04:00,62.7,43.8,30.12,NNW,331,2.0,6.0,50,0.00,,,0.00,114.0,WUHU216DAVISVP2,2013-01-21 00:04:00,
2013-01-20 16:09:00,62.8,43.9,30.12,NNW,331,3.0,6.0,50,0.00,,,0.00,104.0,WUHU216DAVISVP2,2013-01-21 00:09:00,
2013-01-20 16:14:00,62.8,43.9,30.12,NNW,331,2.0,6.0,50,0.00,,,0.00,90.0,WUHU216DAVISVP2,2013-01-21 00:14:00,
2013-01-20 16:19:00,62.7,43.8,30.12,NNW,331,3.0,6.0,50,0.00,,,0.00,76.0,WUHU216DAVISVP2,2013-01-21 00:19:00,
2013-01-20 16:24:00,62.4,43.5,30.12,NNW,331,4.0,5.0,50,0.00,,,0.00,63.0,WUHU216DAVISVP2,2013-01-21 00:24:00,
2013-01-20 16:29:00,62.2,43.3,30.13,NNW,331,1.0,5.0,50,0.00,,,0.00,53.0,WUHU216DAVISVP2,2013-01-21 00:29:00,
2013-01-20 16:34:00,62.0,43.7,30.13,NNW,331,1.0,5.0,51,0.00,,,0.00,42.0,WUHU216DAVISVP2,2013-01-21 00:34:00,
2013-01-20 16:39:00,61.8,43.5,30.13,NNW,331,1.0,5.0,51,0.00,,,0.00,33.0,WUHU216DAVISVP2,2013-01-21 00:39:00,
2013-01-20 16:44:00,61.5,43.8,30.13,WNW,296,3.0,4.0,52,0.00,,,0.00,28.0,WUHU216DAVISVP2,2013-01-21 00:44:00,
2013-01-20 16:49:00,61.3,43.6,30.13,WNW,296,1.0,4.0,52,0.00,,,0.00,25.0,WUHU216DAVISVP2,2013-01-21 00:49:00,
2013-01-20 16:54:00,61.0,43.8,30.14,WNW,296,0.0,4.0,53,0.00,,,0.00,21.0,WUHU216DAVISVP2,2013-01-21 00:54:00,
2013-01-20 16:59:00,60.7,44.0,30.14,WNW,296,1.0,4.0,54,0.00,,,0.00,16.0,WUHU216DAVISVP2,2013-01-21 00:59:00,
2013-01-20 17:04:00,60.3,44.1,30.14,WNW,296,2.0,3.0,55,0.00,,,0.00,11.0,WUHU216DAVISVP2,2013-01-21 01:04:00,
2013-01-20 17:09:00,59.8,44.2,30.14,WNW,296,1.0,3.0,56,0.00,,,0.00,7.0,WUHU216DAVISVP2,2013-01-21 01:09:00,
2013-01-20 17:14:00,59.4,44.3,30.14,WNW,296,0.0,3.0,57,0.00,,,0.00,0.0,WUHU216DAVISVP2,2013-01-21 01:14:00,
2013-01-20 17:19:00,59.1,44.0,30.14,WNW,296,0.0,3.0,57,0.00,,,0.00,0.0,WUHU216DAVISVP2,2013-01-21 01:19:00,
2013-01-20 17:24:00,58.8,44.2,30.14,WNW,296,0.0,2.0,58,0.00,,,0.00,0.0,WUHU216DAVISVP2,2013-01-21 01:24:00,
2013-01-20 17:29:00,58.5,44.3,30.15,WNW,296,0.0,1.0,59,0.00,,,0.00,0.0,WUHU216DAVISVP2,2013-01-21 01:29:00,
2013-01-20 17:34:00,58.1,44.0,30.15,WNW,296,0.0,0.0,59,0.00,,,0.00,0.0,WUHU216DAVISVP2,2013-01-21 01:34:00,
2013-01-20 17:39:00,57.8,44.1,30.15,WNW,296,0.0,0.0,60,0.00,,,0.00,0.0,WUHU216DAVISVP2,2013-01-21 01:39:00,
2013-01-20 17:44:00,57.3,44.1,30.15,WNW,296,0.0,0.0,61,0.00,,,0.00,0.0,WUHU216DAVISVP2,2013-01-21 01:44:00,
2013-01-20 17:49:00,56.9,43.7,30.15,WNW,296,0.0,0.0,61,0.00,,,0.00,0.0,WUHU216DAVISVP2,2013-01-21 01:49:00,
2013-01-20 17:54:00,56.6,43.9,30.15,WNW,296,0.0,0.0,62,0.00,,,0.00,0.0,WUHU216DAVISVP2,2013-01-21 01:54:00,
2013-01-20 17:59:00,56.2,43.9,30.15,WNW,296,0.0,0.0,63,0.00,,,0.00,0.0,WUHU216DAVISVP2,2013-01-21 01:59:00,
2013-01-20 18:04:00,55.9,43.6,30.16,WNW,296,0.0,0.0,63,0.00,,,0.00,0.0,WUHU216DAVISVP2,2013-01-21 02:04:00,
2013-01-20 18:09:00,55.4,44.0,30.16,WNW,296,0.0,0.0,65,0.00,,,0.00,0.0,WUHU216DAVISVP2,2013-01-21 02:09:00,
2013-01-20 18:14:00,55.1,43.7,30.16,WNW,296,0.0,0.0,65,0.00,,,0.00,0.0,WUHU216DAVISVP2,2013-01-21 02:14:00,
2013-01-20 18:19:00,54.8,43.4,30.16,WNW,296,0.0,0.0,65,0.00,,,0.00,0.0,WUHU216DAVISVP2,2013-01-21 02:19:00,
2013-01-20 18:24:00,54.4,43.4,30.16,WNW,296,0.0,0.0,66,0.00,,,0.00,0.0,WUHU216DAVISVP2,2013-01-21 02:24:00,
2013-01-20 18:29:00,54.0,43.4,30.16,WNW,296,0.0,0.0,67,0.00,,,0.00,0.0,WUHU216DAVISVP2,2013-01-21 02:29:00,
2013-01-20 18:34:00,53.7,43.1,30.16,WNW,296,0.0,0.0,67,0.00,,,0.00,0.0,WUHU216DAVISVP2,2013-01-21 02:34:00,
2013-01-20 18:39:00,53.5,43.3,30.16,WNW,296,0.0,0.0,68,0.00,,,0.00,0.0,WUHU216DAVISVP2,2013-01-21 02:39:00,
2013-01-20 18:44:00,53.2,43.0,30.16,WNW,296,0.0,0.0,68,0.00,,,0.00,0.0,WUHU216DAVISVP2,2013-01-21 02:44:00,
2013-01-20 18:49:00,52.7,42.9,30.16,WNW,296,0.0,0.0,69,0.00,,,0.00,0.0,WUHU216DAVISVP2,2013-01-21 02:49:00,
2013-01-20 18:54:00,52.4,42.6,30.16,WNW,296,2.0,2.0,69,0.00,,,0.00,0.0,WUHU216DAVISVP2,2013-01-21 02:54:00,
2013-01-20 18:59:00,52.3,42.5,30.16,WNW,296,1.0,3.0,69,0.00,,,0.00,0.0,WUHU216DAVISVP2,2013-01-21 02:59:00,
2013-01-20 19:04:00,51.9,42.2,30.16,WNW,296,2.0,3.0,69,0.00,,,0.00,0.0,WUHU216DAVISVP2,2013-01-21 03:04:00,
2013-01-20 19:09:00,51.6,42.2,30.16,WNW,296,1.0,3.0,70,0.00,,,0.00,0.0,WUHU216DAVISVP2,2013-01-21 03:09:00,
2013-01-20 19:14:00,51.2,42.2,30.16,WNW,296,0.0,3.0,71,0.00,,,0.00,0.0,WUHU216DAVISVP2,2013-01-21 03:14:00,
2013-01-20 19:19:00,50.8,41.8,30.16,WNW,296,0.0,3.0,71,0.00,,,0.00,0.0,WUHU216DAVISVP2,2013-01-21 03:19:00,
2013-01-20 19:24:00,50.5,41.9,30.16,WNW,296,0.0,2.0,72,0.00,,,0.00,0.0,WUHU216DAVISVP2,2013-01-21 03:24:00,
2013-01-20 19:29:00,50.1,41.9,30.16,WNW,296,0.0,2.0,73,0.00,,,0.00,0.0,WUHU216DAVISVP2,2013-01-21 03:29:00,
2013-01-20 19:34:00,49.7,41.8,30.16,WNW,296,0.0,1.0,74,0.00,,,0.00,0.0,WUHU216DAVISVP2,2013-01-21 03:34:00,
2013-01-20 19:39:00,49.5,42.0,30.17,WNW,296,0.0,1.0,75,0.00,,,0.00,0.0,WUHU216DAVISVP2,2013-01-21 03:39:00,
2013-01-20 19:44:00,49.4,41.9,30.17,WNW,296,0.0,1.0,75,0.00,,,0.00,0.0,WUHU216DAVISVP2,2013-01-21 03:44:00,
2013-01-20 19:49:00,49.1,41.6,30.17,WNW,296,0.0,1.0,75,0.00,,,0.00,0.0,WUHU216DAVISVP2,2013-01-21 03:49:00,
2013-01-20 19:54:00,48.8,41.6,30.17,WNW,296,0.0,0.0,76,0.00,,,0.00,0.0,WUHU216DAVISVP2,2013-01-21 03:54:00,
2013-01-20 19:59:00,48.5,41.3,30.17,WNW,296,0.0,0.0,76,0.00,,,0.00,0.0,WUHU216DAVISVP2,2013-01-21 03:59:00,
2013-01-20 20:04:00,48.2,41.4,30.17,WNW,296,0.0,1.0,77,0.00,,,0.00,0.0,WUHU216DAVISVP2,2013-01-21 04:04:00,
2013-01-20 20:09:00,48.1,41.3,30.18,WNW,296,0.0,1.0,77,0.00,,,0.00,0.0,WUHU216DAVISVP2,2013-01-21 04:09:00,
2013-01-20 20:14:00,47.8,41.0,30.18,WNW,296,0.0,1.0,77,0.00,,,0.00,0.0,WUHU216DAVISVP2,2013-01-21 04:14:00,
2013-01-20 20:19:00,47.3,40.5,30.18,WNW,296,0.0,1.0,77,0.00,,,0.00,0.0,WUHU216DAVISVP2,2013-01-21 04:19:00,
2013-01-20 20:24:00,46.9,40.4,30.18,WNW,296,0.0,0.0,78,0.00,,,0.00,0.0,WUHU216DAVISVP2,2013-01-21 04:24:00,
2013-01-20 20:29:00,46.5,40.4,30.18,WNW,296,0.0,0.0,79,0.00,,,0.00,0.0,WUHU216DAVISVP2,2013-01-21 04:29:00,
2013-01-20 20:34:00,45.7,39.6,30.18,WNW,296,0.0,0.0,79,0.00,,,0.00,0.0,WUHU216DAVISVP2,2013-01-21 04:34:00,
2013-01-20 20:39:00,44.8,39.6,30.18,WNW,296,0.0,0.0,82,0.00,,,0.00,0.0,WUHU216DAVISVP2,2013-01-21 04:39:00,
2013-01-20 20:44:00,44.2,39.7,30.18,WNW,296,0.0,0.0,84,0.00,,,0.00,0.0,WUHU216DAVISVP2,2013-01-21 04:44:00,
2013-01-20 20:49:00,44.1,39.9,30.18,WNW,296,0.0,0.0,85,0.00,,,0.00,0.0,WUHU216DAVISVP2,2013-01-21 04:49:00,
2013-01-20 20:54:00,43.8,39.3,30.19,WNW,296,0.0,0.0,84,0.00,,,0.00,0.0,WUHU216DAVISVP2,2013-01-21 04:54:00,
2013-01-20 20:59:00,43.4,39.2,30.18,WNW,296,0.0,0.0,85,0.00,,,0.00,0.0,WUHU216DAVISVP2,2013-01-21 04:59:00,
2013-01-20 21:01:00,43.3,39.1,30.18,WNW,296,0.0,0.0,85,0.00,,,0.00,0.0,WUHU216DAVISVP2,2013-01-21 05:01:00,
2013-01-20 21:03:00,43.1,38.9,30.18,WNW,296,0.0,0.0,85,0.00,,,0.00,0.0,WUHU216DAVISVP2,2013-01-21 05:03:00,
2013-01-20 21:08:00,42.7,38.8,30.18,WNW,296,0.0,0.0,86,0.00,,,0.00,0.0,WUHU216DAVISVP2,2013-01-21 05:08:00,
2013-01-20 21:13:00,42.4,38.5,30.18,WNW,296,0.0,0.0,86,0.00,,,0.00,0.0,WUHU216DAVISVP2,2013-01-21 05:13:00,
2013-01-20 21:18:00,42.2,38.6,30.19,WNW,296,0.0,0.0,87,0.00,,,0.00,0.0,WUHU216DAVISVP2,2013-01-21 05:18:00,
2013-01-20 21:23:00,42.1,38.5,30.19,WNW,296,0.0,0.0,87,0.00,,,0.00,0.0,WUHU216DAVISVP2,2013-01-21 05:23:00,
2013-01-20 21:28:00,42.2,38.9,30.19,WNW,296,0.0,0.0,88,0.00,,,0.00,0.0,WUHU216DAVISVP2,2013-01-21 05:28:00,
2013-01-20 21:33:00,42.3,39.0,30.19,WNW,296,0.0,1.0,88,0.00,,,0.00,0.0,WUHU216DAVISVP2,2013-01-21 05:33:00,
2013-01-20 21:38:00,42.4,38.5,30.19,WNW,296,0.0,1.0,86,0.00,,,0.00,0.0,WUHU216DAVISVP2,2013-01-21 05:38:00,
2013-01-20 21:43:00,42.2,38.3,30.19,WNW,296,0.0,1.0,86,0.00,,,0.00,0.0,WUHU216DAVISVP2,2013-01-21 05:43:00,
2013-01-20 21:48:00,41.9,38.3,30.19,WNW,296,0.0,0.0,87,0.00,,,0.00,0.0,WUHU216DAVISVP2,2013-01-21 05:48:00,
2013-01-20 21:53:00,41.6,38.0,30.19,WNW,296,0.0,0.0,87,0.00,,,0.00,0.0,WUHU216DAVISVP2,2013-01-21 05:53:00,
2013-01-20 21:58:00,41.1,37.8,30.19,WNW,296,0.0,1.0,88,0.00,,,0.00,0.0,WUHU216DAVISVP2,2013-01-21 05:58:00,
2013-01-20 22:03:00,40.9,37.9,30.19,WNW,296,0.0,1.0,89,0.00,,,0.00,0.0,WUHU216DAVISVP2,2013-01-21 06:03:00,
2013-01-20 22:08:00,40.8,37.8,30.19,WNW,296,0.0,1.0,89,0.00,,,0.00,0.0,WUHU216DAVISVP2,2013-01-21 06:08:00,
2013-01-20 22:13:00,40.7,38.0,30.19,WNW,296,0.0,1.0,90,0.00,,,0.00,0.0,WUHU216DAVISVP2,2013-01-21 06:13:00,
2013-01-20 22:18:00,40.7,38.2,30.19,WNW,296,0.0,0.0,91,0.00,,,0.00,0.0,WUHU216DAVISVP2,2013-01-21 06:18:00,
2013-01-20 22:23:00,40.5,37.5,30.19,WNW,296,0.0,0.0,89,0.00,,,0.00,0.0,WUHU216DAVISVP2,2013-01-21 06:23:00,
2013-01-20 22:28:00,40.5,37.8,30.19,WNW,296,0.0,0.0,90,0.00,,,0.00,0.0,WUHU216DAVISVP2,2013-01-21 06:28:00,
2013-01-20 22:33:00,40.2,37.5,30.19,WNW,296,0.0,0.0,90,0.00,,,0.00,0.0,WUHU216DAVISVP2,2013-01-21 06:33:00,
2013-01-20 22:38:00,39.8,36.8,30.19,WNW,296,0.0,0.0,89,0.00,,,0.00,0.0,WUHU216DAVISVP2,2013-01-21 06:38:00,
2013-01-20 22:43:00,39.6,36.9,30.19,WNW,296,0.0,0.0,90,0.00,,,0.00,0.0,WUHU216DAVISVP2,2013-01-21 06:43:00,
2013-01-20 22:48:00,39.4,36.7,30.19,WNW,296,0.0,0.0,90,0.00,,,0.00,0.0,WUHU216DAVISVP2,2013-01-21 06:48:00,
2013-01-20 22:53:00,39.3,36.8,30.19,WNW,296,0.0,0.0,91,0.00,,,0.00,0.0,WUHU216DAVISVP2,2013-01-21 06:53:00,
2013-01-20 22:58:00,39.3,36.8,30.19,WNW,296,0.0,0.0,91,0.00,,,0.00,0.0,WUHU216DAVISVP2,2013-01-21 06:58:00,
2013-01-20 23:03:00,39.1,36.6,30.19,WNW,296,0.0,0.0,91,0.00,,,0.00,0.0,WUHU216DAVISVP2,2013-01-21 07:03:00,
2013-01-20 23:08:00,39.0,36.5,30.19,WNW,296,0.0,0.0,91,0.00,,,0.00,0.0,WUHU216DAVISVP2,2013-01-21 07:08:00,
2013-01-20 23:13:00,39.1,36.9,30.19,WNW,296,0.0,0.0,92,0.00,,,0.00,0.0,WUHU216DAVISVP2,2013-01-21 07:13:00,
2013-01-20 23:18:00,39.6,37.4,30.19,WNW,296,1.0,2.0,92,0.00,,,0.00,0.0,WUHU216DAVISVP2,2013-01-21 07:18:00,
2013-01-20 23:23:00,40.0,37.8,30.19,WNW,296,0.0,2.0,92,0.00,,,0.00,0.0,WUHU216DAVISVP2,2013-01-21 07:23:00,
2013-01-20 23:28:00,40.2,37.7,30.19,WNW,296,2.0,2.0,91,0.00,,,0.00,0.0,WUHU216DAVISVP2,2013-01-21 07:28:00,
2013-01-20 23:33:00,40.6,38.1,30.19,WNW,296,2.0,3.0,91,0.00,,,0.00,0.0,WUHU216DAVISVP2,2013-01-21 07:33:00,
2013-01-20 23:38:00,41.2,38.7,30.19,WNW,296,1.0,3.0,91,0.00,,,0.00,0.0,WUHU216DAVISVP2,2013-01-21 07:38:00,
2013-01-20 23:43:00,41.3,38.5,30.19,WNW,296,1.0,3.0,90,0.00,,,0.00,0.0,WUHU216DAVISVP2,2013-01-21 07:43:00,
2013-01-20 23:48:00,41.3,38.3,30.19,WNW,296,0.0,3.0,89,0.00,,,0.00,0.0,WUHU216DAVISVP2,2013-01-21 07:48:00,
2013-01-20 23:53:00,41.2,38.4,30.19,WNW,296,1.0,2.0,90,0.00,,,0.00,0.0,WUHU216DAVISVP2,2013-01-21 07:53:00,
2013-01-20 23:58:00,41.2,38.4,30.19,WNW,296,2.0,3.0,90,0.00,,,0.00,0.0,WUHU216DAVISVP2,2013-01-21 07:58:00,